This demonstration page uses our WeatherBlox Daily Observations layout. Learn more.

Left ArrowRight Arrow

39.95238, -75.16362

Hourly Observations for December 6, 2017

Temp ( °F °C ) Dew Point ( °F °C ) Humidity (%) Winds ( mph kmh ) Pressure ( in mb ) Visibility ( mi km ) Precip ( " mm )
12:49 am 00:49 Cloudy 57 14 55 13 94 94 SW 10 17 29.85 1011 8 13 0.00 0.00
12:54 am 00:54 Cloudy 57 13.9 55 12.8 93 93 SW 10 17 29.84 1011 8 13 0.00 0.00
1:08 am 01:08 Cloudy 57 13.9 55 12.8 93 93 SW 10 17 29.83 1010 9 14 0.00 0.00
1:54 am 01:54 Cloudy with Light Rain 57 13.9 54 12.2 90 90 SW 12 19 29.83 1010 8 13 0.00 0.03
2:34 am 02:34 Cloudy with Light Rain 52 11.1 43 6.1 72 72 NW 30 48 29.91 1013 8 13 0.00 0.03
2:39 am 02:39 Cloudy 52 11.1 42 5.6 69 69 WNW 21 33 29.91 1013 10 16 0.00 0.03
2:48 am 02:48 Cloudy 52 11 41 5 67 67 WNW 23 37 29.91 1013 10 16 0.00 0.03
2:54 am 02:54 Cloudy 52 11.1 41 5 66 66 WNW 17 28 29.90 1012 10 16 0.00 0.03
3:54 am 03:54 Cloudy 51 10.6 37 2.8 59 59 W 13 20 29.92 1013 10 16 0.00 0.00
4:54 am 04:54 Cloudy 50 10 35 1.7 57 57 WNW 14 22 29.95 1014 10 16 0.00 0.00
5:54 am 05:54 Cloudy 47 8.3 25 -3.9 42 42 WNW 24 39 30.00 1016 10 16 0.00 0.00
6:54 am 06:54 Cloudy 46 7.8 19 -7.2 34 34 WNW 22 35 30.02 1017 10 16 0.00 0.00
7:54 am 07:54 Cloudy 42 5.6 16 -8.9 35 35 WNW 21 33 30.05 1018 10 16 0.00 0.00
8:54 am 08:54 Cloudy 41 5 15 -9.4 35 35 WNW 13 20 30.08 1019 10 16 0.00 0.00
9:54 am 09:54 Mostly Cloudy 41 5 15 -9.4 35 35 NW 13 20 30.09 1019 10 16 0.00 0.00
10:54 am 10:54 Mostly Cloudy 41 5 16 -8.9 36 36 W 14 22 30.08 1019 10 16 0.00 0.00
11:54 am 11:54 Mostly Cloudy 43 6.1 17 -8.3 35 35 WNW 16 26 30.06 1018 10 16 0.00 0.00
12:54 pm 12:54 Mostly Cloudy 44 6.7 13 -10.6 28 28 WNW 13 20 30.02 1017 10 16 0.00 0.00
1:54 pm 13:54 Mostly Cloudy 44 6.7 14 -10 30 30 W 13 20 30.03 1017 10 16 0.00 0.00
2:54 pm 14:54 Cloudy 43 6.1 14 -10 31 31 WSW 15 24 30.03 1017 10 16 0.00 0.00
3:21 pm 15:21 Cloudy 44 6.7 14 -10 30 30 W 13 20 30.03 1017 10 16 0.00 0.00
3:54 pm 15:54 Cloudy 43 6.1 14 -10 31 31 W 15 24 30.04 1017 10 16 0.00 0.00
4:54 pm 16:54 Cloudy 43 6.1 16 -8.9 34 34 W 9 15 30.04 1017 10 16 0.00 0.00
5:54 pm 17:54 Cloudy 43 6.1 17 -8.3 35 35 W 13 20 30.04 1017 10 16 0.00 0.00
6:54 pm 18:54 Cloudy 43 6.1 19 -7.2 38 38 SW 10 17 30.04 1017 10 16 0.00 0.00
7:54 pm 19:54 Cloudy 42 5.6 20 -6.7 41 41 SW 12 19 30.04 1017 10 16 0.00 0.00
8:54 pm 20:54 Mostly Cloudy 41 5 23 -5 49 49 SSW 7 11 30.04 1017 10 16 0.00 0.00
9:54 pm 21:54 Cloudy 40 4.4 24 -4.4 53 53 SSW 9 15 30.04 1017 10 16 0.00 0.00
10:54 pm 22:54 Cloudy 41 5 25 -3.9 53 53 SW 8 13 30.04 1017 10 16 0.00 0.00
11:54 pm 23:54 Cloudy 40 4.4 25 -3.9 55 55 WSW 8 13 30.04 1017 10 16 0.00 0.00

Powered by AerisWeather